TimeCST,TemperatureF,Dew PointF,Humidity,Sea Level PressureIn,VisibilityMPH,Wind Direction,Wind SpeedMPH,Gust SpeedMPH,PrecipitationIn,Events,Conditions,WindDirDegrees,DateUTC
12:53 AM,36.0,30.0,79,30.14,10.0,NNE,8.1,-,N/A,,Overcast,20,2013-01-15 06:53:00
1:53 AM,36.0,28.9,76,30.12,10.0,NNE,5.8,-,N/A,,Overcast,20,2013-01-15 07:53:00
2:53 AM,36.0,28.9,76,30.10,10.0,NNE,8.1,-,N/A,,Overcast,30,2013-01-15 08:53:00
3:53 AM,36.0,28.9,76,30.12,10.0,North,4.6,-,N/A,,Overcast,10,2013-01-15 09:53:00
4:53 AM,35.1,28.9,78,30.11,10.0,North,6.9,-,0.00,,Overcast,360,2013-01-15 10:53:00
5:53 AM,33.8,28.4,81,30.10,9.0,NNE,9.2,-,N/A,Rain,Light Rain,20,2013-01-15 11:53:00
6:53 AM,33.1,28.9,85,30.12,4.0,North,8.1,-,0.00,Rain,Light Rain,360,2013-01-15 12:53:00
7:06 AM,33.8,28.4,81,30.12,5.0,North,6.9,-,0.00,Rain,Light Rain,10,2013-01-15 13:06:00
7:39 AM,33.8,28.4,81,30.13,5.0,North,6.9,-,0.01,Rain,Light Rain,360,2013-01-15 13:39:00
7:53 AM,33.1,28.9,85,30.15,4.0,North,3.5,-,0.01,Rain,Light Rain,350,2013-01-15 13:53:00
8:02 AM,33.8,28.4,81,30.16,1.8,North,4.6,-,0.01,Rain,Rain,350,2013-01-15 14:02:00
8:25 AM,33.8,30.2,87,30.16,1.8,NNW,5.8,-,0.04,Rain,Light Rain,330,2013-01-15 14:25:00
8:40 AM,33.8,30.2,87,30.17,2.5,North,9.2,-,0.05,Rain,Light Rain,350,2013-01-15 14:40:00
8:53 AM,34.0,30.0,85,30.17,2.5,NNW,6.9,-,0.06,Rain,Light Rain,340,2013-01-15 14:53:00
9:19 AM,33.8,28.4,81,30.17,3.0,North,6.9,-,0.01,Rain,Light Rain,360,2013-01-15 15:19:00
9:51 AM,33.8,30.2,87,30.17,5.0,NNE,5.8,-,0.01,Rain,Light Rain,20,2013-01-15 15:51:00
9:53 AM,34.0,30.0,85,30.17,4.0,North,5.8,-,0.02,Rain,Light Rain,10,2013-01-15 15:53:00
10:53 AM,34.0,30.0,85,30.17,-9999.0,North,4.6,-,N/A,Rain,Light Rain,360,2013-01-15 16:53:00
11:22 AM,33.8,30.2,87,30.14,3.0,North,6.9,-,0.02,Rain,Light Rain,360,2013-01-15 17:22:00
11:28 AM,33.8,30.2,87,30.14,2.5,North,4.6,-,0.04,Rain,Rain,10,2013-01-15 17:28:00
11:34 AM,35.6,30.2,81,30.14,3.0,NNE,6.9,-,0.04,Rain,Light Rain,20,2013-01-15 17:34:00
11:53 AM,35.1,30.0,82,30.13,9.0,NNE,6.9,-,0.04,Rain,Light Rain,20,2013-01-15 17:53:00
12:13 PM,35.6,30.2,81,30.09,8.0,NNE,5.8,-,0.01,Rain,Light Rain,20,2013-01-15 18:13:00
12:53 PM,35.1,30.9,85,30.09,10.0,NE,5.8,-,0.01,,Overcast,40,2013-01-15 18:53:00
1:53 PM,35.1,30.9,85,30.08,10.0,North,6.9,-,0.01,Rain,Light Rain,10,2013-01-15 19:53:00
2:53 PM,35.1,30.9,85,30.08,10.0,NNW,5.8,-,N/A,,Overcast,340,2013-01-15 20:53:00
3:53 PM,35.1,30.0,82,30.09,10.0,North,8.1,-,N/A,,Overcast,350,2013-01-15 21:53:00
4:53 PM,35.1,30.9,85,30.13,9.0,NNW,5.8,-,N/A,,Overcast,330,2013-01-15 22:53:00
5:53 PM,35.1,30.9,85,30.12,10.0,Variable,6.9,-,N/A,,Overcast,0,2013-01-15 23:53:00
6:49 PM,35.6,30.2,81,30.14,6.0,NNW,10.4,-,N/A,,Overcast,340,2013-01-16 00:49:00
6:53 PM,35.1,30.9,85,30.15,6.0,Variable,6.9,-,N/A,,Overcast,0,2013-01-16 00:53:00
7:53 PM,35.1,30.9,85,30.16,6.0,North,8.1,-,N/A,,Overcast,350,2013-01-16 01:53:00
8:53 PM,35.1,30.9,85,30.18,7.0,North,10.4,19.6,N/A,,Overcast,350,2013-01-16 02:53:00
9:22 PM,35.6,30.2,81,30.18,8.0,NNW,10.4,-,N/A,,Overcast,340,2013-01-16 03:22:00
9:53 PM,35.1,30.9,85,30.17,6.0,North,9.2,19.6,N/A,,Overcast,10,2013-01-16 03:53:00
10:53 PM,36.0,30.9,82,30.16,10.0,NNW,8.1,-,N/A,,Overcast,340,2013-01-16 04:53:00
11:36 PM,35.6,32.0,87,30.14,10.0,North,8.1,-,N/A,,Overcast,350,2013-01-16 05:36:00